Location: Florence
(33.9745°N, 118.2481°W)
Time: 18:54:36
(UTC+00:00)

USA 276 - Pass Details

Date: 23 March 2023
Orbit: 366 x 369 km, 50.0° (Epoch: 12 July)

Event Time Altitude Azimuth Distance (km) Brightness Sun altitude
Exits shadow 12:41:54 43° 287° (WNW) 487 2.1 -15.4°
Maximum altitude 12:42:21 49° 322° (NW) 445 2.1 -15.3°
Drops below altitude 10° 12:45:10 10° 39° (NE) 1,292 5.5 -14.7°
Sets 12:47:15 0° 45° (NE) 2,145 6.8 -14.3°
